Time,TemperatureF,DewpointF,PressureIn,WindDirection,WindDirectionDegrees,WindSpeedMPH,WindSpeedGustMPH,Humidity,HourlyPrecipIn,Conditions,Clouds,dailyrainin,SoftwareType,DateUTC
2013-02-11 00:00:00,36.8,33.0,30.21,South,176,0.0,0.0,86,0.00,,,0.02,Wunderground v.1.15,2013-02-11 05:00:00,
2013-02-11 00:05:00,36.6,33.1,30.21,South,176,0.0,0.0,87,0.00,,,0.00,Wunderground v.1.15,2013-02-11 05:05:00,
2013-02-11 00:15:00,36.3,33.1,30.21,South,176,0.0,0.0,88,0.00,,,0.00,Wunderground v.1.15,2013-02-11 05:15:00,
2013-02-11 00:20:00,36.3,32.8,30.21,South,176,0.0,0.0,87,0.00,,,0.00,Wunderground v.1.15,2013-02-11 05:20:00,
2013-02-11 00:25:00,36.3,33.4,30.20,South,176,0.0,0.0,89,0.00,,,0.00,Wunderground v.1.15,2013-02-11 05:25:00,
2013-02-11 00:30:00,36.1,33.2,30.20,South,176,0.0,0.0,89,0.00,,,0.00,Wunderground v.1.15,2013-02-11 05:30:00,
2013-02-11 00:40:00,35.9,33.3,30.20,South,176,0.0,0.0,90,0.00,,,0.00,Wunderground v.1.15,2013-02-11 05:40:00,
2013-02-11 00:50:00,35.9,33.3,30.20,South,176,0.0,0.0,90,0.00,,,0.00,Wunderground v.1.15,2013-02-11 05:50:00,
2013-02-11 00:55:00,35.8,33.2,30.19,South,176,0.0,0.0,90,0.00,,,0.00,Wunderground v.1.15,2013-02-11 05:55:00,
2013-02-11 01:05:00,35.2,32.8,30.18,South,176,0.0,0.0,91,0.00,,,0.00,Wunderground v.1.15,2013-02-11 06:05:00,
2013-02-11 01:15:00,35.0,32.6,30.18,South,176,0.0,0.0,91,0.00,,,0.00,Wunderground v.1.15,2013-02-11 06:15:00,
2013-02-11 01:25:00,35.3,32.9,30.17,South,176,0.0,0.0,91,0.00,,,0.00,Wunderground v.1.15,2013-02-11 06:25:00,
2013-02-11 01:30:00,35.4,33.3,30.16,South,175,0.0,0.0,92,0.00,,,0.00,Wunderground v.1.15,2013-02-11 06:30:00,
2013-02-11 01:40:00,35.4,33.0,30.17,South,176,0.0,0.0,91,0.00,,,0.00,Wunderground v.1.15,2013-02-11 06:40:00,
2013-02-11 01:50:00,35.4,33.0,30.16,South,176,0.0,0.0,91,0.00,,,0.00,Wunderground v.1.15,2013-02-11 06:50:00,
2013-02-11 01:55:00,35.5,33.4,30.16,South,176,0.0,0.0,92,0.00,,,0.00,Wunderground v.1.15,2013-02-11 06:55:00,
2013-02-11 02:05:00,35.5,33.4,30.17,South,176,0.0,0.0,92,0.00,,,0.00,Wunderground v.1.15,2013-02-11 07:05:00,
2013-02-11 02:15:00,35.3,33.2,30.16,South,176,0.0,0.0,92,0.00,,,0.00,Wunderground v.1.15,2013-02-11 07:15:00,
2013-02-11 02:25:00,35.4,33.3,30.16,South,176,0.0,0.0,92,0.00,,,0.01,Wunderground v.1.15,2013-02-11 07:25:00,
2013-02-11 02:30:00,35.4,33.6,30.16,South,176,0.0,0.0,93,0.00,,,0.01,Wunderground v.1.15,2013-02-11 07:30:00,
2013-02-11 02:40:00,35.4,33.6,30.14,South,175,0.0,0.0,93,0.00,,,0.01,Wunderground v.1.15,2013-02-11 07:40:00,
2013-02-11 02:45:00,35.3,33.5,30.14,South,176,0.0,0.0,93,0.00,,,0.01,Wunderground v.1.15,2013-02-11 07:45:00,
2013-02-11 02:55:00,35.2,33.6,30.15,South,176,0.0,0.0,94,0.00,,,0.01,Wunderground v.1.15,2013-02-11 07:55:00,
2013-02-11 03:05:00,35.2,33.6,30.14,South,176,0.0,0.0,94,0.00,,,0.02,Wunderground v.1.15,2013-02-11 08:05:00,
2013-02-11 03:15:00,35.1,33.5,30.13,South,176,0.0,0.0,94,0.00,,,0.02,Wunderground v.1.15,2013-02-11 08:15:00,
2013-02-11 03:20:00,35.1,33.5,30.12,South,176,0.0,0.0,94,0.00,,,0.02,Wunderground v.1.15,2013-02-11 08:20:00,
2013-02-11 03:30:00,35.2,33.9,30.12,South,176,0.0,0.0,95,0.00,,,0.02,Wunderground v.1.15,2013-02-11 08:30:00,
2013-02-11 03:40:00,35.3,34.0,30.10,South,176,0.0,0.0,95,0.00,,,0.02,Wunderground v.1.15,2013-02-11 08:40:00,
2013-02-11 03:45:00,35.3,34.0,30.09,South,176,0.0,0.0,95,0.00,,,0.02,Wunderground v.1.15,2013-02-11 08:45:00,
2013-02-11 03:55:00,35.2,33.9,30.10,South,176,0.0,0.0,95,0.00,,,0.02,Wunderground v.1.15,2013-02-11 08:55:00,
2013-02-11 04:00:00,35.3,34.0,30.09,South,176,0.0,0.0,95,0.00,,,0.02,Wunderground v.1.15,2013-02-11 09:00:00,
2013-02-11 04:05:00,35.4,34.1,30.09,South,176,0.0,0.0,95,0.00,,,0.02,Wunderground v.1.15,2013-02-11 09:05:00,
2013-02-11 04:15:00,35.5,34.5,30.09,South,175,0.0,0.0,96,0.00,,,0.02,Wunderground v.1.15,2013-02-11 09:15:00,
2013-02-11 04:20:00,35.5,34.5,30.09,South,176,0.0,0.0,96,0.00,,,0.02,Wunderground v.1.15,2013-02-11 09:20:00,
2013-02-11 04:30:00,35.6,34.6,30.08,South,176,0.0,0.0,96,0.00,,,0.02,Wunderground v.1.15,2013-02-11 09:30:00,
2013-02-11 04:35:00,35.6,34.6,30.08,South,176,0.0,0.0,96,0.00,,,0.02,Wunderground v.1.15,2013-02-11 09:35:00,
2013-02-11 04:45:00,35.6,34.6,30.08,South,176,0.0,0.0,96,0.00,,,0.02,Wunderground v.1.15,2013-02-11 09:45:00,
2013-02-11 04:55:00,35.7,34.7,30.07,South,176,0.0,0.0,96,0.00,,,0.02,Wunderground v.1.15,2013-02-11 09:55:00,
2013-02-11 05:00:00,35.7,34.7,30.07,South,176,0.0,0.0,96,0.00,,,0.02,Wunderground v.1.15,2013-02-11 10:00:00,
2013-02-11 05:05:00,35.8,34.8,30.07,South,176,0.0,0.0,96,0.00,,,0.02,Wunderground v.1.15,2013-02-11 10:05:00,
2013-02-11 05:15:00,35.8,34.8,30.06,South,176,0.0,0.0,96,0.00,,,0.03,Wunderground v.1.15,2013-02-11 10:15:00,
2013-02-11 05:20:00,35.9,34.9,30.06,South,176,0.0,0.0,96,0.00,,,0.03,Wunderground v.1.15,2013-02-11 10:20:00,
2013-02-11 05:30:00,35.9,34.9,30.06,South,176,0.0,0.0,96,0.00,,,0.03,Wunderground v.1.15,2013-02-11 10:30:00,
2013-02-11 05:40:00,36.0,35.0,30.05,South,176,0.0,0.0,96,0.00,,,0.03,Wunderground v.1.15,2013-02-11 10:40:00,
2013-02-11 05:45:00,36.0,35.0,30.05,South,176,0.0,0.0,96,0.00,,,0.03,Wunderground v.1.15,2013-02-11 10:45:00,
2013-02-11 05:55:00,36.1,35.1,30.04,South,176,0.0,0.0,96,0.00,,,0.03,Wunderground v.1.15,2013-02-11 10:55:00,
2013-02-11 06:00:00,36.1,35.1,30.03,South,176,0.0,0.0,96,0.00,,,0.03,Wunderground v.1.15,2013-02-11 11:00:00,
2013-02-11 06:05:00,36.2,35.2,30.03,South,176,0.0,0.0,96,0.00,,,0.03,Wunderground v.1.15,2013-02-11 11:05:00,
2013-02-11 06:15:00,36.3,35.3,30.05,WNW,301,0.0,1.0,96,0.00,,,0.03,Wunderground v.1.15,2013-02-11 11:15:00,
2013-02-11 06:20:00,36.2,35.2,30.04,WNW,300,0.0,0.0,96,0.00,,,0.03,Wunderground v.1.15,2013-02-11 11:20:00,
2013-02-11 06:30:00,36.1,35.1,30.04,WNW,301,0.0,0.0,96,0.00,,,0.03,Wunderground v.1.15,2013-02-11 11:30:00,
2013-02-11 06:40:00,36.1,35.1,30.04,WNW,301,0.0,0.0,96,0.00,,,0.03,Wunderground v.1.15,2013-02-11 11:40:00,
2013-02-11 06:45:00,36.1,35.1,30.04,WNW,301,0.0,0.0,96,0.00,,,0.03,Wunderground v.1.15,2013-02-11 11:45:00,
2013-02-11 06:50:00,36.1,35.1,30.03,WNW,300,0.0,0.0,96,0.00,,,0.03,Wunderground v.1.15,2013-02-11 11:50:00,
2013-02-11 07:00:00,35.9,34.9,30.03,WNW,302,0.0,0.0,96,0.00,,,0.03,Wunderground v.1.15,2013-02-11 12:00:00,
2013-02-11 07:05:00,35.8,34.8,30.02,WNW,301,0.0,0.0,96,0.00,,,0.03,Wunderground v.1.15,2013-02-11 12:05:00,
2013-02-11 07:15:00,35.7,34.7,30.02,WNW,301,0.0,0.0,96,0.00,,,0.03,Wunderground v.1.15,2013-02-11 12:15:00,
2013-02-11 07:20:00,35.8,34.8,30.02,WNW,300,0.0,0.0,96,0.00,,,0.03,Wunderground v.1.15,2013-02-11 12:20:00,
2013-02-11 07:25:00,35.9,34.9,30.02,WNW,301,0.0,0.0,96,0.00,,,0.03,Wunderground v.1.15,2013-02-11 12:25:00,
2013-02-11 07:35:00,35.9,34.9,30.01,WNW,300,0.0,0.0,96,0.00,,,0.03,Wunderground v.1.15,2013-02-11 12:35:00,
2013-02-11 07:45:00,36.1,35.1,30.00,WNW,302,0.0,0.0,96,0.00,,,0.03,Wunderground v.1.15,2013-02-11 12:45:00,
2013-02-11 07:50:00,36.2,35.2,30.01,WNW,302,0.0,0.0,96,0.00,,,0.03,Wunderground v.1.15,2013-02-11 12:50:00,
2013-02-11 08:00:00,36.5,35.5,30.01,WNW,301,0.0,0.0,96,0.00,,,0.03,Wunderground v.1.15,2013-02-11 13:00:00,
2013-02-11 08:05:00,36.5,35.7,30.00,WNW,301,0.0,0.0,97,0.00,,,0.03,Wunderground v.1.15,2013-02-11 13:05:00,
2013-02-11 08:15:00,36.6,35.8,30.00,WNW,302,0.0,0.0,97,0.00,,,0.03,Wunderground v.1.15,2013-02-11 13:15:00,
2013-02-11 08:20:00,36.8,36.0,30.00,WNW,301,0.0,0.0,97,0.00,,,0.03,Wunderground v.1.15,2013-02-11 13:20:00,
2013-02-11 08:25:00,36.9,36.1,30.00,WNW,300,0.0,0.0,97,0.00,,,0.03,Wunderground v.1.15,2013-02-11 13:25:00,
2013-02-11 08:35:00,37.3,36.5,30.00,WNW,302,0.0,0.0,97,0.00,,,0.03,Wunderground v.1.15,2013-02-11 13:35:00,
2013-02-11 08:40:00,37.4,36.6,29.99,WNW,301,0.0,0.0,97,0.00,,,0.03,Wunderground v.1.15,2013-02-11 13:40:00,
2013-02-11 08:50:00,37.6,36.8,29.99,WNW,300,0.0,0.0,97,0.00,,,0.03,Wunderground v.1.15,2013-02-11 13:50:00,
2013-02-11 09:00:00,37.8,37.0,29.98,WNW,301,0.0,0.0,97,0.00,,,0.03,Wunderground v.1.15,2013-02-11 14:00:00,
2013-02-11 09:05:00,38.0,37.2,29.97,WNW,301,0.0,0.0,97,0.00,,,0.03,Wunderground v.1.15,2013-02-11 14:05:00,
2013-02-11 09:15:00,38.3,37.5,29.98,WNW,302,0.0,0.0,97,0.00,,,0.03,Wunderground v.1.15,2013-02-11 14:15:00,
2013-02-11 09:20:00,38.4,37.6,29.98,WNW,302,0.0,0.0,97,0.00,,,0.03,Wunderground v.1.15,2013-02-11 14:20:00,
2013-02-11 09:25:00,38.5,37.7,29.98,WNW,301,0.0,0.0,97,0.00,,,0.03,Wunderground v.1.15,2013-02-11 14:25:00,
2013-02-11 09:35:00,38.8,38.0,29.97,WNW,301,0.0,0.0,97,0.00,,,0.03,Wunderground v.1.15,2013-02-11 14:35:00,
2013-02-11 09:45:00,40.0,39.2,29.96,WNW,300,0.0,0.0,97,0.00,,,0.03,Wunderground v.1.15,2013-02-11 14:45:00,
2013-02-11 09:50:00,40.7,39.9,29.96,WNW,301,0.0,0.0,97,0.00,,,0.03,Wunderground v.1.15,2013-02-11 14:50:00,
2013-02-11 10:00:00,41.7,41.2,29.96,WNW,302,0.0,0.0,98,0.00,,,0.03,Wunderground v.1.15,2013-02-11 15:00:00,
2013-02-11 10:05:00,42.4,41.9,29.96,WNW,301,0.0,0.0,98,0.00,,,0.03,Wunderground v.1.15,2013-02-11 15:05:00,
2013-02-11 10:15:00,44.1,43.6,29.95,SSW,207,0.0,2.0,98,0.00,,,0.03,Wunderground v.1.15,2013-02-11 15:15:00,
2013-02-11 10:20:00,44.5,44.0,29.94,SSW,209,0.0,0.0,98,0.00,,,0.03,Wunderground v.1.15,2013-02-11 15:20:00,
2013-02-11 10:25:00,44.9,44.4,29.93,SSW,207,0.0,0.0,98,0.00,,,0.03,Wunderground v.1.15,2013-02-11 15:25:00,
2013-02-11 10:35:00,45.6,45.1,29.93,SSW,209,0.0,0.0,98,0.00,,,0.03,Wunderground v.1.15,2013-02-11 15:35:00,
2013-02-11 10:45:00,46.3,45.5,29.93,SSW,208,0.0,2.0,97,0.00,,,0.03,Wunderground v.1.15,2013-02-11 15:45:00,
2013-02-11 10:50:00,46.7,45.9,29.93,SSW,208,0.0,0.0,97,0.00,,,0.03,Wunderground v.1.15,2013-02-11 15:50:00,
2013-02-11 11:00:00,47.7,46.3,29.92,SSW,208,0.0,0.0,95,0.00,,,0.03,Wunderground v.1.15,2013-02-11 16:00:00,
2013-02-11 11:05:00,48.1,46.5,29.92,NW,308,0.0,0.0,94,0.00,,,0.03,Wunderground v.1.15,2013-02-11 16:05:00,
2013-02-11 11:15:00,49.1,47.2,29.91,NW,308,0.0,0.0,93,0.00,,,0.03,Wunderground v.1.15,2013-02-11 16:15:00,
2013-02-11 11:20:00,49.6,47.7,29.91,West,263,0.0,0.0,93,0.00,,,0.03,Wunderground v.1.15,2013-02-11 16:20:00,
2013-02-11 11:25:00,50.1,47.9,29.90,West,263,0.0,0.0,92,0.00,,,0.03,Wunderground v.1.15,2013-02-11 16:25:00,
2013-02-11 11:35:00,50.9,48.7,29.89,West,262,0.0,0.0,92,0.00,,,0.03,Wunderground v.1.15,2013-02-11 16:35:00,
2013-02-11 11:45:00,51.8,49.3,29.89,West,265,0.0,1.0,91,0.00,,,0.03,Wunderground v.1.15,2013-02-11 16:45:00,
2013-02-11 11:50:00,52.4,49.6,29.89,West,265,0.0,0.0,90,0.00,,,0.03,Wunderground v.1.15,2013-02-11 16:50:00,
2013-02-11 12:00:00,53.6,50.7,29.87,South,180,0.0,0.0,90,0.00,,,0.03,Wunderground v.1.15,2013-02-11 17:00:00,
2013-02-11 12:05:00,54.2,50.7,29.87,South,181,1.0,1.0,88,0.00,,,0.03,Wunderground v.1.15,2013-02-11 17:05:00,
2013-02-11 12:15:00,54.7,50.9,29.86,South,170,1.0,3.0,87,0.00,,,0.03,Wunderground v.1.15,2013-02-11 17:15:00,
2013-02-11 12:20:00,54.9,50.8,29.86,South,188,1.0,3.0,86,0.00,,,0.03,Wunderground v.1.15,2013-02-11 17:20:00,
2013-02-11 12:30:00,54.9,50.8,29.85,SE,131,1.0,1.0,86,0.00,,,0.03,Wunderground v.1.15,2013-02-11 17:30:00,
2013-02-11 12:35:00,55.0,50.9,29.85,SE,133,0.0,1.0,86,0.00,,,0.03,Wunderground v.1.15,2013-02-11 17:35:00,
2013-02-11 12:45:00,55.3,51.2,29.85,South,180,0.0,2.0,86,0.00,,,0.03,Wunderground v.1.15,2013-02-11 17:45:00,
2013-02-11 12:50:00,55.5,51.4,29.85,South,181,0.0,2.0,86,0.00,,,0.03,Wunderground v.1.15,2013-02-11 17:50:00,
2013-02-11 13:00:00,56.4,51.9,29.85,South,186,0.0,0.0,85,0.00,,,0.03,Wunderground v.1.15,2013-02-11 18:00:00,
2013-02-11 13:05:00,56.8,52.3,29.84,WSW,245,0.0,0.0,85,0.00,,,0.03,Wunderground v.1.15,2013-02-11 18:05:00,
2013-02-11 13:15:00,57.2,52.1,29.83,SSW,210,0.0,1.0,83,0.00,,,0.03,Wunderground v.1.15,2013-02-11 18:15:00,
2013-02-11 13:20:00,57.4,52.6,29.83,SSE,160,0.0,0.0,84,0.00,,,0.03,Wunderground v.1.15,2013-02-11 18:20:00,
2013-02-11 13:30:00,57.6,52.5,29.83,SSE,168,1.0,2.0,83,0.00,,,0.03,Wunderground v.1.15,2013-02-11 18:30:00,
2013-02-11 13:35:00,57.7,52.2,29.83,South,177,1.0,2.0,82,0.00,,,0.03,Wunderground v.1.15,2013-02-11 18:35:00,
2013-02-11 13:45:00,57.6,52.1,29.81,SSE,156,1.0,2.0,82,0.00,,,0.03,Wunderground v.1.15,2013-02-11 18:45:00,
2013-02-11 13:55:00,57.6,51.8,29.81,South,175,1.0,3.0,81,0.00,,,0.03,Wunderground v.1.15,2013-02-11 18:55:00,
2013-02-11 14:00:00,57.5,52.0,29.81,South,170,1.0,1.0,82,0.00,,,0.03,Wunderground v.1.15,2013-02-11 19:00:00,
2013-02-11 14:05:00,57.5,51.7,29.80,South,179,1.0,1.0,81,0.00,,,0.03,Wunderground v.1.15,2013-02-11 19:05:00,
2013-02-11 14:15:00,56.9,51.5,29.79,SSE,159,1.0,1.0,82,0.00,,,0.03,Wunderground v.1.15,2013-02-11 19:15:00,
2013-02-11 14:20:00,56.7,51.3,29.79,South,181,1.0,1.0,82,0.00,,,0.03,Wunderground v.1.15,2013-02-11 19:20:00,
2013-02-11 14:30:00,56.3,50.9,29.79,SE,143,1.0,1.0,82,0.00,,,0.03,Wunderground v.1.15,2013-02-11 19:30:00,
2013-02-11 14:35:00,56.2,51.1,29.78,SW,233,1.0,1.0,83,0.00,,,0.03,Wunderground v.1.15,2013-02-11 19:35:00,
2013-02-11 14:45:00,56.2,51.1,29.79,SE,140,1.0,1.0,83,0.00,,,0.03,Wunderground v.1.15,2013-02-11 19:45:00,
2013-02-11 14:50:00,56.2,51.1,29.79,SSW,195,1.0,1.0,83,0.00,,,0.03,Wunderground v.1.15,2013-02-11 19:50:00,
2013-02-11 15:00:00,56.1,51.0,29.79,SSW,195,2.0,2.0,83,0.00,,,0.03,Wunderground v.1.15,2013-02-11 20:00:00,
2013-02-11 15:05:00,56.0,50.9,29.79,SSE,165,1.0,3.0,83,0.00,,,0.03,Wunderground v.1.15,2013-02-11 20:05:00,
2013-02-11 15:15:00,56.1,51.3,29.79,ESE,110,1.0,1.0,84,0.00,,,0.03,Wunderground v.1.15,2013-02-11 20:15:00,
2013-02-11 15:20:00,56.1,51.0,29.79,SSW,213,1.0,1.0,83,0.00,,,0.03,Wunderground v.1.15,2013-02-11 20:20:00,
2013-02-11 15:30:00,56.3,51.2,29.79,South,186,1.0,2.0,83,0.00,,,0.03,Wunderground v.1.15,2013-02-11 20:30:00,
2013-02-11 15:40:00,56.5,51.4,29.79,SSE,165,1.0,1.0,83,0.00,,,0.03,Wunderground v.1.15,2013-02-11 20:40:00,
2013-02-11 15:45:00,56.8,51.4,29.78,South,177,1.0,1.0,82,0.00,,,0.03,Wunderground v.1.15,2013-02-11 20:45:00,
2013-02-11 15:55:00,57.2,51.4,29.78,South,179,0.0,1.0,81,0.00,,,0.03,Wunderground v.1.15,2013-02-11 20:55:00,
2013-02-11 16:05:00,56.8,51.7,29.77,South,172,1.0,1.0,83,0.00,,,0.03,Wunderground v.1.15,2013-02-11 21:05:00,
2013-02-11 16:15:00,56.2,51.4,29.77,SSE,167,1.0,1.0,84,0.00,,,0.03,Wunderground v.1.15,2013-02-11 21:15:00,
2013-02-11 16:20:00,55.9,51.5,29.77,SSE,168,1.0,1.0,85,0.00,,,0.03,Wunderground v.1.15,2013-02-11 21:20:00,
2013-02-11 16:30:00,55.5,51.4,29.77,SSE,165,1.0,1.0,86,0.00,,,0.03,Wunderground v.1.15,2013-02-11 21:30:00,
2013-02-11 16:40:00,55.1,51.0,29.77,South,182,0.0,0.0,86,0.00,,,0.03,Wunderground v.1.15,2013-02-11 21:40:00,
2013-02-11 16:50:00,55.0,51.2,29.77,South,172,1.0,1.0,87,0.00,,,0.03,Wunderground v.1.15,2013-02-11 21:50:00,
2013-02-11 16:55:00,54.8,51.0,29.77,South,169,0.0,1.0,87,0.00,,,0.03,Wunderground v.1.15,2013-02-11 21:55:00,
2013-02-11 17:00:00,54.7,51.2,29.76,South,177,0.0,2.0,88,0.00,,,0.03,Wunderground v.1.15,2013-02-11 22:00:00,
2013-02-11 17:05:00,54.6,51.1,29.76,SSE,162,1.0,2.0,88,0.00,,,0.03,Wunderground v.1.15,2013-02-11 22:05:00,
2013-02-11 17:15:00,54.4,50.9,29.76,SE,141,0.0,2.0,88,0.00,,,0.03,Wunderground v.1.15,2013-02-11 22:15:00,
2013-02-11 17:20:00,54.3,50.8,29.76,South,178,0.0,0.0,88,0.00,,,0.03,Wunderground v.1.15,2013-02-11 22:20:00,
2013-02-11 17:30:00,54.1,50.9,29.76,SSW,199,1.0,1.0,89,0.00,,,0.03,Wunderground v.1.15,2013-02-11 22:30:00,
2013-02-11 17:35:00,54.0,50.8,29.75,SSE,160,1.0,3.0,89,0.00,,,0.03,Wunderground v.1.15,2013-02-11 22:35:00,
2013-02-11 17:45:00,53.8,50.6,29.76,SSE,160,0.0,0.0,89,0.00,,,0.03,Wunderground v.1.15,2013-02-11 22:45:00,
2013-02-11 17:55:00,53.6,50.7,29.76,SSE,160,0.0,0.0,90,0.00,,,0.03,Wunderground v.1.15,2013-02-11 22:55:00,
2013-02-11 18:00:00,53.6,50.7,29.75,SSE,160,0.0,0.0,90,0.00,,,0.03,Wunderground v.1.15,2013-02-11 23:00:00,
2013-02-11 18:05:00,53.5,50.6,29.75,SSE,160,0.0,0.0,90,0.00,,,0.03,Wunderground v.1.15,2013-02-11 23:05:00,
2013-02-11 18:15:00,53.4,50.5,29.75,SSE,162,0.0,0.0,90,0.00,,,0.03,Wunderground v.1.15,2013-02-11 23:15:00,
2013-02-11 18:20:00,53.3,50.4,29.75,SSE,160,0.0,0.0,90,0.00,,,0.03,Wunderground v.1.15,2013-02-11 23:20:00,
2013-02-11 18:30:00,53.2,50.3,29.75,SSE,164,0.0,0.0,90,0.00,,,0.03,Wunderground v.1.15,2013-02-11 23:30:00,
2013-02-11 18:35:00,53.1,50.2,29.75,SSE,166,0.0,0.0,90,0.00,,,0.03,Wunderground v.1.15,2013-02-11 23:35:00,
2013-02-11 18:45:00,52.9,50.0,29.75,SSE,166,0.0,1.0,90,0.00,,,0.03,Wunderground v.1.15,2013-02-11 23:45:00,
2013-02-11 18:55:00,52.8,49.6,29.75,SSE,166,0.0,0.0,89,0.00,,,0.03,Wunderground v.1.15,2013-02-11 23:55:00,
2013-02-11 19:00:00,52.8,49.6,29.75,SSE,165,0.0,1.0,89,0.00,,,0.03,Wunderground v.1.15,2013-02-12 00:00:00,
2013-02-11 19:05:00,52.7,49.5,29.75,SSE,166,0.0,1.0,89,0.00,,,0.03,Wunderground v.1.15,2013-02-12 00:05:00,
2013-02-11 19:15:00,52.6,49.4,29.74,SSE,161,0.0,0.0,89,0.00,,,0.03,Wunderground v.1.15,2013-02-12 00:15:00,
2013-02-11 19:20:00,52.6,49.4,29.74,SSE,168,0.0,0.0,89,0.00,,,0.03,Wunderground v.1.15,2013-02-12 00:20:00,
2013-02-11 19:30:00,52.5,49.4,29.75,SSW,199,0.0,0.0,89,0.00,,,0.03,Wunderground v.1.15,2013-02-12 00:30:00,
2013-02-11 19:40:00,52.4,48.9,29.75,SSW,199,0.0,0.0,88,0.00,,,0.03,Wunderground v.1.15,2013-02-12 00:40:00,
2013-02-11 19:45:00,52.3,48.9,29.76,SSW,199,0.0,0.0,88,0.00,,,0.03,Wunderground v.1.15,2013-02-12 00:45:00,
2013-02-11 19:55:00,52.1,48.7,29.76,SSW,199,0.0,0.0,88,0.00,,,0.03,Wunderground v.1.15,2013-02-12 00:55:00,
2013-02-11 20:05:00,52.1,48.3,29.76,SSW,199,0.0,1.0,87,0.00,,,0.03,Wunderground v.1.15,2013-02-12 01:05:00,
2013-02-11 20:15:00,52.7,43.9,29.77,SW,220,1.0,1.0,72,0.00,,,0.03,Wunderground v.1.15,2013-02-12 01:15:00,
2013-02-11 20:20:00,53.7,43.0,29.76,SW,225,1.0,3.0,67,0.00,,,0.03,Wunderground v.1.15,2013-02-12 01:20:00,
2013-02-11 20:30:00,55.3,42.5,29.76,WSW,240,1.0,6.0,62,0.00,,,0.03,Wunderground v.1.15,2013-02-12 01:30:00,
2013-02-11 20:40:00,55.8,40.8,29.76,NNE,14,1.0,1.0,57,0.00,,,0.03,Wunderground v.1.15,2013-02-12 01:40:00,
2013-02-11 20:45:00,56.5,38.6,29.76,SSE,162,2.0,2.0,51,0.00,,,0.03,Wunderground v.1.15,2013-02-12 01:45:00,
2013-02-11 20:55:00,57.0,38.5,29.76,NW,312,1.0,2.0,50,0.00,,,0.03,Wunderground v.1.15,2013-02-12 01:55:00,
2013-02-11 21:00:00,57.0,37.0,29.76,ESE,108,1.0,5.0,47,0.00,,,0.03,Wunderground v.1.15,2013-02-12 02:00:00,
2013-02-11 21:05:00,57.3,36.1,29.77,SE,131,2.0,5.0,45,0.00,,,0.03,Wunderground v.1.15,2013-02-12 02:05:00,
2013-02-11 21:15:00,57.7,32.2,29.77,SSE,161,2.0,2.0,38,0.00,,,0.03,Wunderground v.1.15,2013-02-12 02:15:00,
2013-02-11 21:20:00,58.0,31.8,29.77,NNE,14,3.0,3.0,37,0.00,,,0.03,Wunderground v.1.15,2013-02-12 02:20:00,
2013-02-11 21:30:00,57.8,31.0,29.77,South,182,2.0,2.0,36,0.00,,,0.03,Wunderground v.1.15,2013-02-12 02:30:00,
2013-02-11 21:40:00,57.6,30.8,29.78,East,83,2.0,2.0,36,0.00,,,0.03,Wunderground v.1.15,2013-02-12 02:40:00,
2013-02-11 21:45:00,57.6,30.1,29.79,East,98,3.0,8.0,35,0.00,,,0.03,Wunderground v.1.15,2013-02-12 02:45:00,
2013-02-11 21:55:00,57.4,30.6,29.79,NE,46,2.0,3.0,36,0.00,,,0.03,Wunderground v.1.15,2013-02-12 02:55:00,
2013-02-11 22:05:00,57.5,28.6,29.78,NW,316,3.0,4.0,33,0.00,,,0.03,Wunderground v.1.15,2013-02-12 03:05:00,
2013-02-11 22:15:00,56.7,29.3,29.78,ESE,104,1.0,2.0,35,0.00,,,0.03,Wunderground v.1.15,2013-02-12 03:15:00,
2013-02-11 22:25:00,56.4,28.3,29.79,West,271,2.0,2.0,34,0.00,,,0.03,Wunderground v.1.15,2013-02-12 03:25:00,
2013-02-11 22:30:00,56.5,27.7,29.79,SE,127,2.0,2.0,33,0.00,,,0.03,Wunderground v.1.15,2013-02-12 03:30:00,
2013-02-11 22:35:00,56.4,27.6,29.79,WSW,243,2.0,2.0,33,0.00,,,0.03,Wunderground v.1.15,2013-02-12 03:35:00,
2013-02-11 22:45:00,56.0,27.3,29.78,SSW,201,2.0,3.0,33,0.00,,,0.03,Wunderground v.1.15,2013-02-12 03:45:00,
2013-02-11 22:55:00,55.8,27.1,29.79,NW,320,3.0,3.0,33,0.00,,,0.03,Wunderground v.1.15,2013-02-12 03:55:00,
2013-02-11 23:00:00,55.8,25.6,29.79,NNE,16,2.0,3.0,31,0.00,,,0.03,Wunderground v.1.15,2013-02-12 04:00:00,
2013-02-11 23:05:00,55.5,26.1,29.79,NNE,33,1.0,3.0,32,0.00,,,0.03,Wunderground v.1.15,2013-02-12 04:05:00,
2013-02-11 23:15:00,55.1,26.5,29.79,East,81,1.0,2.0,33,0.00,,,0.03,Wunderground v.1.15,2013-02-12 04:15:00,
2013-02-11 23:20:00,54.8,25.5,29.79,ENE,77,1.0,1.0,32,0.00,,,0.03,Wunderground v.1.15,2013-02-12 04:20:00,
2013-02-11 23:30:00,54.6,26.0,29.79,East,99,1.0,1.0,33,0.00,,,0.03,Wunderground v.1.15,2013-02-12 04:30:00,
2013-02-11 23:40:00,54.8,25.5,29.80,WSW,245,3.0,3.0,32,0.00,,,0.03,Wunderground v.1.15,2013-02-12 04:40:00,
2013-02-11 23:45:00,54.9,26.3,29.81,SE,129,3.0,3.0,33,0.00,,,0.03,Wunderground v.1.15,2013-02-12 04:45:00,
2013-02-11 23:55:00,54.8,26.2,29.80,North,354,4.0,7.0,33,0.00,,,0.03,Wunderground v.1.15,2013-02-12 04:55:00,